Wolf Creek Pass, CO

5:53 AM MDT on June 27, 2017 (GMT -0600)
Wolf Creek Pass

Weather History for KCPW - July, 2013

Change the Weather History Date:

Thursday, July 4, 2013

  Actual Average (KALS) Record (KALS)
Temperature  
Mean Temperature 51 °F -  
Max Temperature 60 °F 82 °F 93 °F (1989)
Min Temperature 42 °F 45 °F 35 °F (1995)
Degree Days  
Heating Degree Days 14    
Growing Degree Days 1 (Base 50)    
Moisture  
Dew Point 33 °F    
Average Humidity 51    
Maximum Humidity 76    
Minimum Humidity 34    
Precipitation  
Precipitation 0.00 in - - ()
Sea Level Pressure  
Sea Level Pressure 30.51 in    
Wind  
Wind Speed - (North)    
Max Wind Speed -    
Max Gust Speed -    
Visibility 10 miles    
Events Rain , Thunderstorm    
Averages and records for this station are not official NWS values.
T = Trace of Precipitation, MM = Missing Value Source: NWS Daily Summary

Daily Weather History Graph

Daily Weather History Graph

Search for Another Location

Airport or City:

Trip Planner

Search our weather history database for the weather conditions in past years. The results will help you decide how hot, cold, wet, or windy it might be!

Date:

Astronomy

Jul. 04, 2013 Rise Set
Actual Time 5:51 AM MDT 8:31 PM MDT
Civil Twilight 5:20 AM MDT 9:02 PM MDT
Nautical Twilight 4:42 AM MDT 9:40 PM MDT
Astronomical Twilight 3:59 AM MDT 10:23 PM MDT
Moon 3:08 AM MDT (7/4) 5:39 PM MDT (7/4)
Length of Visible Light 15h 41m
Length of Day
14h 40m
Waning Crescent, 11% of the Moon is Illuminated
Jul 4
Waning Crescent
Jul 8
New
Jul 15
First Quarter
Jul 22
Full
Jul 29
Last Quarter

Hourly Weather History & Observations

Time (MDT) Temp. Dew Point Humidity Pressure Visibility Wind Dir Wind Speed Gust Speed Precip Events Conditions
12:17 AM 44.6 °F 32.0 °F 61% 30.53 in 10.0 mi North - - N/A   Clear
12:37 AM 44.6 °F 32.0 °F 61% 30.52 in 10.0 mi North - - N/A   Clear
12:57 AM 44.6 °F 32.0 °F 61% 30.52 in 10.0 mi North - - N/A   Clear
1:17 AM 44.6 °F 32.0 °F 61% 30.52 in 10.0 mi North - - N/A   Clear
1:37 AM 44.6 °F 32.0 °F 61% 30.52 in 10.0 mi North - - N/A   Clear
1:57 AM 44.6 °F 32.0 °F 61% 30.52 in 10.0 mi North - - N/A   Clear
2:17 AM 44.6 °F 32.0 °F 61% 30.51 in 10.0 mi North - - N/A   Clear
2:37 AM 44.6 °F 32.0 °F 61% 30.50 in 10.0 mi North - - N/A   Clear
2:57 AM 44.6 °F 32.0 °F 61% 30.50 in 10.0 mi North - - N/A   Clear
3:17 AM 42.8 °F 32.0 °F 66% 30.50 in 10.0 mi North - - N/A   Clear
3:37 AM 42.8 °F 32.0 °F 66% 30.50 in 10.0 mi North - - N/A   Clear
3:57 AM 44.6 °F 32.0 °F 61% 30.49 in 10.0 mi North - - N/A   Clear
4:17 AM 44.6 °F 32.0 °F 61% 30.49 in 10.0 mi North - - N/A   Clear
4:37 AM 44.6 °F 32.0 °F 61% 30.49 in 10.0 mi North - - N/A   Clear
4:57 AM 44.6 °F 32.0 °F 61% 30.49 in 10.0 mi North - - N/A   Clear
5:17 AM 42.8 °F 32.0 °F 66% 30.49 in 10.0 mi North - - N/A   Clear
5:37 AM 44.6 °F 32.0 °F 61% 30.49 in 10.0 mi North - - N/A   Clear
5:57 AM 42.8 °F 32.0 °F 66% 30.49 in 10.0 mi North - - N/A   Clear
6:17 AM 44.6 °F 32.0 °F 61% 30.49 in 10.0 mi North - - N/A   Clear
6:37 AM 44.6 °F 32.0 °F 61% 30.49 in 10.0 mi North - - N/A   Clear
6:57 AM 46.4 °F 32.0 °F 57% 30.49 in 10.0 mi North - - N/A   Clear
7:17 AM 48.2 °F 32.0 °F 54% 30.49 in 10.0 mi North - - N/A   Clear
7:37 AM 50.0 °F 32.0 °F 50% 30.50 in 10.0 mi North - - N/A   Clear
7:57 AM 50.0 °F 32.0 °F 50% 30.50 in 10.0 mi North - - N/A   Clear
8:17 AM 51.8 °F 32.0 °F 47% 30.50 in 10.0 mi North - - N/A   Clear
8:37 AM 51.8 °F 33.8 °F 50% 30.51 in 10.0 mi North - - N/A   Clear
8:57 AM 53.6 °F 33.8 °F 47% 30.52 in 10.0 mi North - - N/A   Clear
9:17 AM 53.6 °F 33.8 °F 47% 30.52 in 10.0 mi North - - N/A   Clear
9:37 AM 55.4 °F 33.8 °F 44% 30.52 in 10.0 mi North - - N/A   Clear
9:57 AM 55.4 °F 33.8 °F 44% 30.54 in 10.0 mi North - - N/A   Clear
10:17 AM 55.4 °F 32.0 °F 41% 30.53 in 10.0 mi North - - N/A   Clear
10:37 AM 55.4 °F 32.0 °F 41% 30.53 in 10.0 mi North - - N/A   Clear
10:57 AM 59.0 °F 32.0 °F 36% 30.52 in 10.0 mi North - - N/A   Clear
11:17 AM 55.4 °F 32.0 °F 41% 30.54 in 10.0 mi North - - N/A   Clear
11:37 AM 59.0 °F 30.2 °F 34% 30.54 in 10.0 mi North - - N/A   Scattered Clouds
11:57 AM 59.0 °F 30.2 °F 34% 30.53 in 10.0 mi North - - N/A   Scattered Clouds
12:17 PM 57.2 °F 30.2 °F 36% 30.54 in 10.0 mi North - - N/A   Scattered Clouds
12:37 PM 59.0 °F 32.0 °F 36% 30.54 in 10.0 mi North - - N/A   Mostly Cloudy
12:57 PM 60.8 °F 32.0 °F 34% 30.52 in 10.0 mi North - - N/A   Scattered Clouds
1:17 PM 59.0 °F 30.2 °F 34% 30.52 in 10.0 mi North - - N/A   Mostly Cloudy
1:37 PM 57.2 °F 33.8 °F 41% 30.53 in 10.0 mi North - - N/A   Overcast
1:57 PM 60.8 °F 35.6 °F 39% 30.52 in 10.0 mi North - - N/A   Mostly Cloudy
2:17 PM 57.2 °F 33.8 °F 41% 30.52 in 10.0 mi North - - N/A   Mostly Cloudy
2:37 PM 57.2 °F 35.6 °F 44% 30.52 in 10.0 mi North - - N/A   Mostly Cloudy
2:57 PM 59.0 °F 35.6 °F 42% 30.52 in 10.0 mi North - - N/A   Mostly Cloudy
3:17 PM 57.2 °F 33.8 °F 41% 30.52 in 10.0 mi North - - N/A   Scattered Clouds
3:37 PM 59.0 °F 35.6 °F 42% 30.51 in 10.0 mi North - - N/A   Clear
3:57 PM 59.0 °F 33.8 °F 39% 30.51 in 10.0 mi North - - N/A   Scattered Clouds
4:17 PM 55.4 °F 33.8 °F 44% 30.50 in 10.0 mi North - - N/A   Scattered Clouds
4:37 PM 57.2 °F 35.6 °F 44% 30.50 in 10.0 mi North - - N/A Thunderstorm Clear
4:57 PM 57.2 °F 33.8 °F 41% 30.49 in 10.0 mi North - - N/A   Clear
5:17 PM 55.4 °F 33.8 °F 44% 30.50 in 10.0 mi North - - N/A   Clear
5:37 PM 55.4 °F 33.8 °F 44% 30.49 in 10.0 mi North - - N/A   Scattered Clouds
5:57 PM 57.2 °F 33.8 °F 41% 30.49 in 10.0 mi North - - N/A   Scattered Clouds
6:17 PM 55.4 °F 33.8 °F 44% 30.49 in 10.0 mi North - - N/A   Scattered Clouds
6:37 PM 53.6 °F 33.8 °F 47% 30.49 in 10.0 mi North - - N/A   Scattered Clouds
6:57 PM 53.6 °F 33.8 °F 47% 30.49 in 10.0 mi North - - N/A   Scattered Clouds
7:17 PM 53.6 °F 32.0 °F 44% 30.49 in 10.0 mi North - - N/A   Clear
7:37 PM 51.8 °F 32.0 °F 47% 30.49 in 10.0 mi North - - N/A   Clear
7:57 PM 51.8 °F 33.8 °F 50% 30.49 in 10.0 mi North - - N/A   Clear
8:17 PM 51.8 °F 33.8 °F 50% 30.49 in 10.0 mi North - - N/A   Scattered Clouds
8:37 PM 51.8 °F 33.8 °F 50% 30.50 in 10.0 mi North - - N/A   Mostly Cloudy
8:57 PM 51.8 °F 33.8 °F 50% 30.51 in 10.0 mi North - - N/A   Overcast
9:17 PM 51.8 °F 33.8 °F 50% 30.52 in 10.0 mi North - - N/A   Overcast
9:37 PM 50.0 °F 35.6 °F 58% 30.52 in 10.0 mi North - - N/A Rain Light Rain
9:57 PM 48.2 °F 35.6 °F 62% 30.54 in 10.0 mi North - - N/A   Scattered Clouds
10:17 PM 46.4 °F 35.6 °F 66% 30.54 in 10.0 mi North - - N/A   Scattered Clouds
10:37 PM 46.4 °F 37.4 °F 71% 30.54 in 10.0 mi North - - N/A   Mostly Cloudy
10:57 PM 46.4 °F 37.4 °F 71% 30.54 in 10.0 mi North - - N/A Rain Light Rain
11:17 PM 44.6 °F 37.4 °F 76% 30.53 in 10.0 mi North - - N/A   Overcast
11:37 PM 46.4 °F 35.6 °F 66% 30.53 in 10.0 mi North - - N/A   Overcast
11:57 PM 46.4 °F 35.6 °F 66% 30.52 in 10.0 mi North - - N/A Rain Light Rain